Location: Newark
(49.8969°N, 3.3422°E)
Time: 17:35:34
(UTC+00:00)

Transit 2A - Visible Passes

Search period start: 28 January 2020 00:00
Search period end: 07 February 2020 00:00
Orbit: 601 x 958 km, 66.7° (Epoch: 28 January)

Date Brightness Start Highest point End Pass type
(mag) Time Alt. Az. Time Alt. Az. Time Alt. Az.
28 Jan 7.1 17:54:40 10° SSE 17:57:25 17° ESE 17:57:25 17° ESE visible
28 Jan 7.1 19:35:40 10° SW 19:37:58 30° SW 19:37:58 30° SW visible
29 Jan 7.5 17:22:21 10° ESE 17:23:32 11° ESE 17:24:42 10° E visible
29 Jan 5.5 19:01:31 10° SSW 19:05:30 73° S 19:05:30 73° S visible
30 Jan 5.6 18:27:31 10° SSW 18:31:48 56° ESE 18:32:58 41° ENE visible
30 Jan 8.0 20:11:34 10° W 20:13:30 20° WNW 20:13:30 20° WNW visible
31 Jan 6.1 17:53:43 10° S 17:57:45 38° ESE 18:00:21 19° ENE visible
31 Jan 7.0 19:36:58 10° WSW 19:40:52 34° NW 19:40:52 34° NW visible
01 Feb 6.6 17:20:09 10° S 17:23:46 26° ESE 17:27:24 10° ENE visible
01 Feb 6.4 19:02:29 10° WSW 19:06:40 45° NW 19:08:10 32° N visible
02 Feb 5.8 18:28:09 10° SW 18:32:28 64° NW 18:35:24 20° NNE visible
02 Feb 8.2 20:13:44 10° WNW 20:15:55 16° NW 20:15:55 16° NW visible
03 Feb 5.5 17:53:58 10° SW 17:58:19 89° SE 18:02:34 11° NE visible
03 Feb 7.7 19:38:52 10° W 19:42:06 20° NNW 19:43:05 18° NNW visible
04 Feb 5.6 17:19:56 10° SSW 17:24:13 61° ESE 17:28:34 10° NE visible
04 Feb 7.5 19:04:07 10° W 19:07:43 25° NW 19:10:10 16° N visible
05 Feb 7.1 18:29:29 10° WSW 18:33:24 32° NW 18:37:14 11° NNE visible
05 Feb 8.4 20:16:26 10° NW 20:17:43 12° NNW 20:17:43 12° NNW visible
06 Feb 6.6 17:55:00 10° WSW 17:59:08 43° NW 18:03:23 10° NNE visible
06 Feb 8.1 19:41:20 10° NW 19:43:30 13° NNW 19:44:44 12° N visible
